Wind_Speed
11 12 9 3 1 3 3 2 2 2 2 5 8 11 14 16 18 18 18 18 18 18 17 17 17 17 17 16 15 15 15 14 14 14 13 12 12 11 9 9 8 7
13 14 11 5 3 3 2 1 2 2 2 4 7 10 13 16 17 18 18 18 18 18 18 18 18 18 18 18 17 17 17 16 16 16 15 15 14 13 13 12 11 10
17 17 13 8 6 5 5 4 3 3 3 4 5 7 10 13 14 15 15 15 16 16 16 16 15 15 15 15 15 15 15 14 14 14 14 13 13 12 12 12 11 11
20 18 15 11 10 9 8 7 6 5 5 5 5 5 7 9 10 11 11 11 11 12 12 11 11 11 10 10 10 10 10 10 10 10 10 10 9 9 10 10 10 10
21 20 18 15 14 13 12 11 9 8 8 6 6 6 6 6 6 7 7 7 8 8 7 7 7 6 6 5 5 5 5 5 5 5 5 6 6 7 8 8 9 9
22 22 22 20 19 17 15 14 12 11 10 9 8 8 7 7 6 6 5 4 4 4 4 3 3 2 2 2 2 2 2 2 3 3 3 4 4 5 6 7 8 8
25 25 24 23 23 21 19 17 16 15 13 12 11 9 9 9 8 9 9 8 6 5 4 3 3 3 4 5 6 6 6 5 5 5 5 5 6 6 6 6 7 7
28 28 26 25 26 24 23 22 20 19 16 15 14 12 12 11 10 10 10 10 9 9 9 9 9 9 10 10 11 10 9 8 8 8 8 8 8 8 9 8 8 8
32 31 28 27 28 28 26 25 24 22 19 18 17 15 14 14 13 12 10 10 10 10 11 11 11 11 12 14 15 13 12 12 12 12 11 10 9 10 11 11 11 10
33 32 29 28 29 30 29 27 27 25 22 20 18 17 16 15 15 14 13 13 13 12 12 12 13 13 14 15 16 17 17 17 16 16 14 12 11 11 12 13 13 12
33 32 30 29 28 30 31 31 29 27 24 20 18 17 17 16 16 17 16 16 17 16 16 16 17 18 19 19 20 22 24 23 20 18 16 14 12 13 13 14 15 15
36 33 28 25 26 28 30 33 33 31 27 23 19 17 17 17 17 17 17 17 17 18 18 19 19 21 23 25 25 25 29 28 22 18 17 15 14 14 15 16 17 17
36 31 25 26 27 27 28 31 33 31 27 23 19 18 19 21 21 18 15 15 15 16 18 19 20 22 23 24 23 22 24 29 27 22 18 16 14 14 16 17 17 18
34 28 26 28 29 26 27 30 31 29 26 22 21 23 25 26 25 20 16 15 14 15 16 17 18 20 20 19 18 16 17 21 26 26 22 17 15 15 16 18 18 18
30 27 29 31 29 24 24 25 23 23 23 22 22 24 25 26 22 18 18 18 15 13 13 14 14 14 14 14 14 14 14 15 19 25 27 24 21 20 20 21 21 20
22 22 24 24 19 15 15 17 16 16 19 20 20 22 24 24 20 17 19 19 15 13 13 13 13 13 13 14 14 14 15 15 16 20 25 27 27 27 28 27 24 22
16 16 15 11 9 9 10 11 11 12 15 16 16 17 18 18 17 17 19 19 18 17 17 17 17 16 16 16 16 16 17 18 19 20 22 24 26 28 29 29 27 25
14 14 11 8 8 10 10 10 11 12 13 14 15 16 14 13 14 15 16 16 17 18 18 19 19 19 19 19 20 21 21 23 24 24 25 25 26 27 28 29 29 28
15 15 13 11 11 11 11 12 13 13 14 15 16 16 14 14 15 16 16 17 18 18 20 21 21 22 23 24 25 25 25 26 27 27 27 27 27 28 28 28 30 30
17 16 14 13 13 13 14 15 16 17 17 17 17 17 17 17 18 19 20 21 22 22 23 24 24 25 26 26 26 27 27 27 27 27 27 27 28 28 28 29 30 30
19 18 17 17 16 17 18 18 19 20 19 18 17 17 18 18 18 19 20 20 20 21 22 22 22 23 24 24 24 25 26 26 26 26 26 27 28 28 29 30 30 30
20 20 20 20 20 20 20 19 18 18 17 17 16 16 16 16 17 18 18 18 19 19 20 21 21 22 23 24 24 24 26 26 27 26 27 27 28 29 30 30 30 30
21 21 21 21 21 20 19 18 17 17 17 17 17 17 17 17 18 19 19 19 20 21 22 22 23 23 24 24 24 25 25 26 26 26 26 26 27 28 30 30 31 31
23 23 23 23 22 21 20 20 19 19 19 19 19 19 20 20 21 21 21 21 22 23 23 24 24 24 25 25 25 25 26 26 26 25 25 24 25 26 27 29 30 31
25 25 25 25 24 23 23 22 22 21 20 20 21 22 22 23 23 22 22 22 22 23 24 24 25 25 26 26 26 26 27 27 27 27 27 27 27 27 28 29 30 31
25 25 25 25 25 25 25 25 24 23 22 22 23 24 24 25 25 25 24 23 23 23 24 24 25 26 26 26 27 27 28 29 29 29 30 30 30 30 30 31 32 33
Wind_Direction
241 259 267 270 319 320 321 357 40 63 114 120 114 110 109 108 106 104 102 103 101 100 101 100 98 97 95 94 92 91 91 90 89 89 87 85 84 82 79 75 69 65
238 244 244 228 222 252 251 204 108 117 145 136 127 120 116 113 110 108 106 104 102 100 99 98 96 95 93 92 90 89 89 88 87 86 84 82 80 77 75 74 71 68
239 237 232 218 213 215 217 208 173 162 166 156 149 136 128 122 116 114 113 111 110 106 103 100 97 95 92 91 89 87 85 84 84 83 81 78 75 71 68 65 63 62
236 232 223 211 209 204 200 207 206 195 183 175 177 167 150 137 129 126 123 121 119 114 112 108 102 98 94 91 89 86 83 80 78 76 73 70 64 58 53 48 45 43
228 227 224 216 211 206 202 207 215 213 205 198 200 200 191 180 166 154 145 139 133 123 118 115 108 100 91 83 81 80 78 72 67 61 51 47 43 34 29 23 18 18
223 226 230 225 216 211 212 216 219 220 222 223 219 221 227 233 234 223 212 196 174 155 142 133 121 96 49 19 11 8 9 10 7 7 2 358 3 3 0 358 355 355
221 225 231 230 223 218 219 223 224 223 228 235 231 228 230 240 253 256 256 256 252 248 242 245 264 291 311 313 313 309 302 306 308 310 314 316 322 328 330 331 332 334
220 225 230 233 232 227 224 226 230 227 227 234 237 235 234 241 253 259 260 261 264 269 269 270 277 288 298 301 301 297 292 292 292 289 290 295 300 303 307 311 310 310
220 226 232 239 242 240 232 229 232 232 230 233 237 240 244 248 254 259 259 258 262 268 269 268 270 283 296 297 293 289 287 288 287 283 280 279 287 292 293 296 296 295
225 230 235 243 248 245 237 231 233 233 232 234 237 240 246 251 254 258 260 262 264 266 268 265 265 278 291 290 284 278 279 283 280 277 276 272 273 278 280 281 281 282
228 232 237 243 243 236 228 224 226 229 230 232 238 243 249 253 255 257 258 260 264 266 269 270 273 281 288 289 284 275 270 273 271 266 267 268 268 270 272 275 275 275
230 234 239 242 242 240 233 221 217 221 222 222 230 242 250 255 255 255 257 257 259 262 267 274 281 289 293 297 296 281 265 261 259 254 252 254 260 265 267 272 276 278
232 237 240 236 236 243 242 228 220 221 219 216 226 238 245 249 247 245 251 257 260 266 275 284 292 297 301 303 303 292 268 254 249 246 246 250 253 257 262 267 274 280
228 232 234 233 233 236 236 230 226 226 225 229 242 245 242 243 243 243 250 257 266 279 289 294 297 301 305 303 297 293 277 258 248 241 241 250 256 257 262 267 273 280
230 234 235 233 233 237 240 240 239 240 243 253 267 267 255 248 250 258 265 268 276 288 291 290 292 295 296 292 285 279 274 268 255 241 239 248 257 263 270 272 274 280
247 249 247 240 237 247 260 263 264 263 263 270 282 283 271 264 269 277 278 278 281 283 281 279 280 279 276 276 278 277 272 270 263 251 247 251 256 263 271 273 276 280
254 252 255 254 252 263 271 268 261 259 265 271 275 274 271 271 276 278 278 278 274 269 269 271 270 270 270 272 274 276 273 269 266 262 259 259 260 264 268 272 277 281
250 249 249 243 243 255 263 260 252 250 256 262 263 263 263 263 265 266 268 267 264 261 261 264 266 269 272 276 276 274 272 269 267 266 265 266 267 266 267 271 275 278
248 247 244 239 241 248 251 251 248 246 250 255 259 260 257 255 256 256 257 257 256 256 258 261 266 270 273 275 275 272 270 268 267 267 267 267 266 266 268 271 273 275
254 253 250 246 246 247 246 244 244 245 250 254 254 251 249 250 253 254 256 258 259 260 263 266 269 271 272 272 271 271 271 270 270 269 268 268 267 267 268 270 271 272
254 254 254 253 254 254 253 251 250 250 251 249 247 246 247 250 253 255 257 259 262 265 268 270 272 273 273 272 273 274 276 277 277 276 273 271 270 268 266 267 269 269
252 252 254 255 256 257 257 255 251 246 243 242 243 247 252 255 258 262 263 265 267 270 271 273 275 277 277 278 278 279 279 280 280 279 277 275 273 270 268 268 269 270
250 251 252 252 252 253 254 251 245 240 241 244 247 251 254 258 261 264 268 271 272 273 274 275 275 275 276 277 278 278 279 280 281 280 279 277 274 272 271 269 269 269
245 246 248 249 249 249 248 245 243 245 248 252 255 258 259 261 264 266 269 272 273 273 274 273 273 273 274 275 276 278 278 278 278 279 279 279 278 277 276 274 271 268
242 241 241 243 243 243 244 245 245 247 251 255 258 261 263 266 268 270 272 272 272 272 271 271 272 272 273 275 276 277 278 278 277 277 278 280 281 282 282 280 276 272
245 244 242 240 238 239 241 245 246 247 251 255 258 261 265 269 272 274 276 276 276 275 273 273 273 274 276 277 278 278 279 279 279 279 280 280 281 282 282 281 278 275
Height
3131 3132 3132 3133 3133 3133 3132 3132 3132 3131 3131 3131 3130 3130 3129 3129 3129 3129 3129 3130 3130 3130 3130 3130 3130 3131 3131 3131 3131 3131 3131 3131 3131 3132 3132 3132 3132 3132 3132 3133 3133 3133
3130 3130 3131 3131 3132 3132 3132 3132 3131 3131 3132 3132 3132 3131 3130 3130 3130 3130 3130 3130 3131 3131 3131 3131 3131 3132 3132 3132 3132 3133 3133 3133 3133 3133 3133 3133 3133 3133 3133 3133 3133 3133
3128 3129 3130 3130 3131 3131 3131 3131 3131 3131 3131 3132 3132 3132 3131 3131 3131 3131 3131 3131 3131 3131 3132 3132 3132 3132 3132 3133 3133 3134 3134 3134 3134 3134 3134 3134 3134 3134 3134 3134 3134 3134
3127 3128 3128 3129 3129 3130 3130 3130 3130 3130 3131 3132 3132 3132 3132 3132 3132 3131 3131 3132 3132 3132 3132 3132 3133 3133 3133 3133 3133 3134 3134 3135 3135 3135 3135 3135 3135 3135 3135 3135 3135 3135
3124 3125 3126 3127 3127 3128 3128 3129 3130 3130 3130 3131 3131 3132 3132 3132 3132 3132 3132 3132 3132 3132 3132 3133 3133 3133 3133 3133 3133 3134 3134 3135 3135 3135 3135 3135 3135 3135 3135 3135 3135 3135
3121 3122 3123 3124 3124 3125 3126 3127 3129 3129 3130 3130 3130 3131 3131 3132 3132 3132 3132 3133 3133 3133 3133 3133 3133 3133 3133 3133 3133 3133 3133 3134 3134 3134 3135 3135 3135 3135 3135 3135 3135 3134
3116 3118 3120 3121 3121 3122 3123 3124 3126 3127 3128 3129 3129 3130 3130 3130 3131 3131 3132 3132 3132 3133 3133 3133 3133 3133 3133 3133 3133 3133 3133 3133 3133 3133 3133 3133 3134 3134 3134 3134 3134 3134
3113 3115 3116 3117 3118 3119 3120 3121 3123 3125 3126 3126 3127 3128 3128 3129 3130 3130 3130 3131 3131 3132 3132 3132 3133 3133 3133 3133 3133 3133 3133 3132 3132 3132 3132 3132 3132 3132 3132 3133 3133 3132
3110 3111 3113 3114 3115 3116 3116 3118 3119 3121 3123 3124 3125 3126 3126 3127 3128 3129 3129 3129 3130 3130 3131 3131 3131 3132 3132 3132 3133 3133 3132 3132 3131 3131 3131 3131 3131 3131 3131 3131 3131 3130
3109 3110 3111 3111 3112 3113 3114 3115 3116 3118 3119 3121 3122 3123 3124 3125 3125 3126 3127 3127 3128 3129 3129 3129 3129 3130 3131 3131 3132 3132 3131 3131 3131 3130 3129 3129 3129 3129 3129 3129 3129 3128
3109 3109 3108 3108 3108 3109 3110 3111 3112 3114 3116 3118 3119 3120 3121 3122 3122 3123 3124 3124 3125 3126 3126 3127 3127 3128 3128 3129 3130 3130 3130 3130 3129 3128 3128 3128 3127 3127 3127 3127 3127 3127
3107 3106 3106 3106 3106 3107 3108 3109 3110 3111 3112 3113 3115 3117 3118 3118 3119 3120 3120 3121 3122 3123 3123 3124 3124 3124 3125 3125 3126 3126 3126 3126 3127 3127 3126 3126 3125 3125 3125 3125 3125 3125
3105 3104 3104 3104 3104 3105 3106 3107 3109 3110 3111 3110 3111 3113 3114 3115 3115 3116 3117 3118 3119 3120 3120 3121 3121 3121 3121 3121 3121 3120 3120 3121 3123 3124 3124 3124 3123 3123 3122 3122 3122 3122
3100 3100 3102 3101 3101 3102 3103 3104 3105 3107 3109 3109 3110 3111 3111 3111 3111 3112 3113 3114 3115 3117 3117 3118 3118 3117 3117 3117 3117 3117 3116 3117 3119 3121 3121 3121 3120 3120 3120 3120 3120 3120
3098 3099 3100 3099 3099 3101 3103 3104 3105 3106 3107 3108 3109 3109 3109 3109 3109 3110 3111 3112 3112 3114 3115 3115 3115 3115 3115 3115 3115 3115 3114 3114 3115 3116 3117 3117 3117 3117 3117 3117 3117 3117
3098 3100 3100 3099 3098 3100 3103 3104 3104 3105 3105 3106 3106 3107 3108 3108 3108 3109 3109 3110 3110 3111 3112 3112 3113 3113 3113 3113 3113 3113 3112 3112 3113 3113 3114 3114 3114 3113 3113 3113 3113 3114
3096 3098 3099 3100 3100 3100 3100 3100 3101 3102 3102 3102 3103 3104 3105 3106 3106 3107 3107 3108 3108 3109 3110 3110 3111 3111 3111 3110 3110 3110 3110 3110 3110 3110 3111 3111 3111 3110 3110 3110 3110 3110
3093 3094 3097 3098 3099 3099 3099 3099 3100 3100 3100 3101 3102 3103 3103 3103 3104 3105 3105 3105 3106 3107 3108 3108 3108 3108 3108 3108 3108 3107 3107 3106 3107 3107 3107 3107 3107 3107 3106 3107 3107 3107
3089 3091 3094 3095 3096 3096 3096 3097 3097 3098 3098 3099 3100 3100 3100 3101 3102 3102 3103 3103 3104 3104 3105 3105 3106 3106 3105 3105 3104 3104 3103 3102 3103 3103 3103 3103 3102 3102 3103 3103 3103 3103
3086 3088 3090 3091 3092 3093 3093 3094 3095 3095 3096 3096 3097 3097 3098 3099 3099 3100 3100 3100 3100 3101 3101 3102 3102 3102 3101 3101 3100 3100 3099 3099 3099 3099 3099 3098 3098 3098 3098 3099 3099 3099
3083 3085 3086 3087 3088 3089 3090 3090 3091 3091 3092 3092 3093 3094 3094 3095 3095 3095 3096 3096 3097 3097 3098 3098 3098 3097 3097 3096 3096 3096 3096 3095 3095 3095 3095 3095 3094 3094 3094 3094 3094 3095
3080 3081 3083 3084 3085 3085 3085 3086 3087 3087 3088 3088 3089 3090 3090 3091 3091 3091 3092 3093 3093 3094 3094 3094 3094 3094 3093 3093 3093 3092 3092 3091 3091 3091 3091 3091 3090 3090 3090 3090 3090 3090
3077 3078 3079 3080 3081 3082 3082 3083 3083 3084 3084 3085 3085 3086 3087 3088 3088 3088 3089 3090 3090 3091 3091 3091 3091 3091 3090 3090 3090 3089 3089 3088 3088 3087 3087 3087 3086 3086 3086 3086 3086 3086
3074 3075 3075 3076 3077 3078 3079 3080 3080 3081 3081 3082 3082 3083 3084 3084 3085 3086 3086 3087 3087 3088 3088 3088 3088 3087 3087 3087 3086 3086 3085 3085 3084 3084 3083 3083 3083 3082 3082 3082 3082 3081
3070 3072 3072 3073 3074 3075 3076 3076 3077 3078 3078 3079 3079 3080 3080 3081 3082 3083 3083 3084 3084 3084 3085 3084 3084 3084 3084 3083 3083 3083 3082 3081 3081 3080 3079 3079 3079 3078 3078 3077 3077 3077
3066 3068 3069 3070 3071 3071 3072 3073 3074 3075 3076 3076 3076 3076 3077 3078 3078 3079 3079 3080 3080 3081 3081 3081 3080 3080 3080 3080 3080 3079 3078 3078 3077 3076 3076 3075 3075 3074 3074 3073 3073 3072